Flag for Germany Weather past 2 weeks in Bad Oeynhausen, North Rhine-Westphalia, Germany

Now
55 °F

Passing clouds.


Feels Like: 54 °F
Forecast: 49 / 60 °F
Wind: 6 mph from Southwest

Location: Bueckeburg

Current Time: Apr 25, 2015 at 11:56:21 PM

Latest Report: Apr 25, 2015 at 10:20 PM


Visibility: 4 mi

Pressure: 29.74 "Hg

Humidity: 88%

Dew point: 52 °F

Location of Bad OeynhausenLocation

Historic Weather in Bad Oeynhausen — Graph

°F

Bad Oeynhausen temperature yesterday

Maximum temperature yesterday: 68 °F (at 4:20 PM)
Minimum temperature yesterday: 37 °F (at 5:20 AM)
Average temperature yesterday: 54 °F

Past Weeks' High & Low Weather Summary

 TemperatureHumidityPressure
High73 °F (Apr 15, 3:20 PM)100% (Apr 23, 7:20 AM)30.45 "Hg (Apr 23, 7:20 AM)
Low34 °F (Apr 18, 5:20 AM)28% (Apr 21, 3:20 PM)29.71 "Hg (Apr 25, 7:20 PM)
Average51 °F66%30.15 "Hg
* Reported Apr 10 10:20 PM — Apr 25 10:20 PM, Bad Oeynhausen, Weather by CustomWeather, © 2015

Note: Actual official high and low records may vary slightly from our data, if they occured in-between our weather recording intervals... More about our weather records

Advertising

Bad Oeynhausen weather history for previous 24 hours

 ConditionsComfort  
Time TempWeatherWind HumidityBarometerVisibility
10:20 PM
Sat, Apr 25
55 °FPassing clouds.6 mph88%29.74 "Hg4 mi
9:20 PM57 °FPartly sunny.8 mph77%29.74 "Hg4 mi
8:20 PM57 °FPartly sunny.9 mph77%29.74 "HgN/A
7:20 PM57 °FPartly sunny.8 mph77%29.71 "HgN/A
6:20 PM57 °FLight rain. Partly sunny.7 mph77%29.74 "HgN/A
5:20 PM59 °FPartly sunny.6 mph72%29.74 "HgN/A
4:20 PM57 °FMore clouds than sun.10 mph77%29.74 "HgN/A
3:20 PM57 °FDrizzle. Mostly cloudy.10 mph82%29.74 "Hg5 mi
2:20 PM55 °FDrizzle. Partly sunny.10 mph88%29.74 "Hg4 mi
1:48 PM55 °FDrizzle. Fog.14 mph88%29.74 "Hg2 mi
1:20 PM59 °FDrizzle. Partly sunny.13 mph77%29.74 "Hg4 mi
12:20 PM59 °FPartly sunny.5 mph72%29.74 "HgN/A
11:20 AM57 °FMore clouds than sun.3 mph72%29.77 "HgN/A
10:20 AM55 °FSprinkles. Broken clouds.6 mph82%29.77 "HgN/A
9:54 AM57 °FRain showers. Broken clouds.8 mph67%29.77 "Hg5 mi
9:20 AM57 °FCloudy.10 mph67%29.77 "HgN/A
8:20 AM57 °FOvercast.2 mph72%29.74 "HgN/A
7:20 AM54 °FMore clouds than sun.6 mph82%29.74 "HgN/A
6:20 AM54 °FLight rain. Mostly cloudy.6 mph82%29.74 "HgN/A
5:20 AM57 °FPassing clouds.9 mph63%29.74 "HgN/A
4:20 AM59 °FPassing clouds.12 mph48%29.77 "HgN/A
3:20 AM57 °FPassing clouds.12 mph51%29.74 "HgN/A
2:20 AM59 °FPassing clouds.10 mph45%29.77 "HgN/A
1:20 AM55 °FPassing clouds.7 mph51%29.77 "Hg5 mi
12:20 AM54 °FPassing clouds.6 mph54%29.80 "Hg5 mi
11:20 PM
Fri, Apr 24
54 °FPassing clouds.6 mph58%29.80 "Hg5 mi
Weather by CustomWeather, © 2015

See weather overviewHow to use our weather pages